SL-12 DEB, 43334

Orbit data source: Space-Track

SL-12 DEB, 43334 is space debris in LEO originally from a launch on Tue, 10 Jan 1989 UTC launched from the Tyuratam Missile And Space Complex (TTMTR). Debris objects in space refer to the collection of defunct objects orbiting the Earth. Examples of debris include non-operational satellites, rocket bodies, and fragments generated from explosions, collisions, or faulty payload assembly.

Loading next visibility...
Identifier
43334, 1989-001Y
Orbit
LEO
Country
Flag of CISCIS
Related business
Manufacturer
Unknown
Mission
Spacecraft
Bus & Motor
Unknown
Mass
Unknown
Launch date (UTC)
1989-01-10 (37 years ago)
Launch vehicle
Unknown
Launch site
Tyuratam Missile And Space Complex (TTMTR)
Object type
Payload
Rocket body
Debris
Shape & HBR
Unknown shape, 0.1 m
Radar Cross Section
Medium (>0.1 m² and <1 m²)

Expand to show TLE details & history
Last TLE update: 3 days ago

TLE from 3 days ago
0 SL-12 DEB
1 43334U 89001Y   26170.20026425  .00002689  00000-0  31426-1 0  9994
2 43334  64.6328 174.4814 1851798 351.0534   6.1144  9.86298850161310
Epoch: 2026-06-19T04:48Z
TLE epoch observation values (Epoch: 2026-06-19T04:48:22.831Z)
Latitude
0.00006°
Longitude
-165.04635°
Altitude
1,121.774 km
Speed
7.933 km/s
True Right ascension
11h 37m 55s
True Declination
0° 00' 00"
Sunlit
Object was in daylight at epoch
Visualization orbit readout
Latitude
Unknown
Longitude
Unknown
Altitude
Unknown
Speed
Unknown
Apparent Right ascension
Unknown
Apparent Declination
Unknown
Sunlit
N/A
Visualization observer readout
Local Sidereal Time
21:35:28
Azimuth
Unknown
Elevation
Unknown
Doppler factor
Unknown
Orbital elements
Apogee altitude
4,505.991 km
Perigee altitude
1,104.785 km
Semi-major axis
9,183.525 km
Eccentricity
0.18518
Inclination
64.6328°
RAAN
174.4814°
Arg. of periapsis
351.0534°
True anomaly
9.03838°
Mean anomaly
6.1144°
Eccentric anomaly
7.49912°
Mean motion
2.4662 °/min
Orbital period
145.97 mins
BSTAR
0.031426
Loading maneuver chart data...
Computing Atmospheric mass density...

Documentation

Showing up to 5 results
|